STARLINK-35732, 67037

Orbit data source: Space-Track

STARLINK-35732, 67037 is a payload satellite owned by SpaceX/Seattle (US) in LEO that was launched on Thu, 11 Dec 2025 UTC via an FALCON 9 launch vehicle from the Air Force Eastern Test Range (AFETR). Payload-class satellites include a variety of spacecraft equipped with specific instruments for various scientific and technological missions. These include communications satellites like Starlink; space stations such as the ISS; scientific satellites like the Hubble; Earth observation satellites from companies like Planet Labs, Umbra, and HawkEye 360; GPS; miniature CubeSats for education and research; and military/defense satellites.

Loading next visibility...
Identifier
67037, 2025-294H
Orbit
LEO
Country
Flag of USUS
Related business
Manufacturer
SpaceX/Seattle
Mission
Operational Commercial Communications
Bus & Motor
STARLINK V2MO, Unknown motor
Mass
575 kg wet, ~530 kg dry
Launch date (UTC)
2025-12-11 (6 months ago)
Launch vehicle
FALCON 9
Launch site
Air Force Eastern Test Range (AFETR)
Object type
Payload
Rocket body
Debris
Shape & HBR
Box + 2 Pan, 17.7 m
Radar Cross Section
36.964 m², Large (>1 m²)

Expand to show TLE details & history
Last TLE update: 12 hours ago

TLE from 12 hours ago
0 STARLINK-35732
1 67037U 25294H   26171.32828638  .00022564  00000-0  82665-3 0  9991
2 67037  42.9991 178.6698 0001697 292.1081  67.9590 15.27593121 30498
Epoch: 2026-06-20T07:52Z
TLE epoch observation values (Epoch: 2026-06-20T07:52:43.943Z)
Latitude
-0.00003°
Longitude
151.94218°
Altitude
482.348 km
Speed
7.626 km/s
True Right ascension
11h 54m 40s
True Declination
0° 00' 00"
Sunlit
Object was in daylight at epoch
Visualization orbit readout
Latitude
Unknown
Longitude
Unknown
Altitude
Unknown
Speed
Unknown
Apparent Right ascension
Unknown
Apparent Declination
Unknown
Sunlit
N/A
Visualization observer readout
Local Sidereal Time
07:14:52
Azimuth
Unknown
Elevation
Unknown
Doppler factor
Unknown
Orbital elements
Apogee altitude
486.12 km
Perigee altitude
483.79 km
Semi-major axis
6,863.092 km
Eccentricity
0.00017
Inclination
42.9991°
RAAN
178.6698°
Arg. of periapsis
292.1081°
True anomaly
67.97703°
Mean anomaly
67.959°
Eccentric anomaly
67.96801°
Mean motion
3.81736 °/min
Orbital period
94.31 mins
BSTAR
0.00082665
Loading maneuver chart data...
Computing Atmospheric mass density...
Loading historical data...
Loading historical data...
Loading historical data...
Loading historical data...
Loading historical data...
Loading historical data...
Loading historical data...

Documentation

Showing up to 5 results
|